www.pogodaiklimat.ru
ПОГОДА в Медан Полония
Время
(UTC), дата
06 28.03
09 28.03
12 28.03
15 28.03
18 28.03
21 28.03
00 29.03
03 29.03
06 29.03
09 29.03
12 29.03
15 29.03
18 29.03
21 29.03
00 30.03
03 30.03
06 30.03
09 30.03
12 30.03
15 30.03
18 30.03
21 30.03
00 31.03
03 31.03
06 31.03
09 31.03
12 31.03
15 31.03
18 31.03
21 31.03
00 1.04
03 1.04
06 1.04
09 1.04
12 1.04
15 1.04
18 1.04
21 1.04
00 2.04
03 2.04
06 2.04
09 2.04
12 2.04
15 2.04
18 2.04
21 2.04
00 3.04
03 3.04
06 3.04
09 3.04
12 3.04
15 3.04
18 3.04
21 3.04
00 4.04
03 4.04
Ветер
(напр.,м/с)
Видим. Явления Облачность Т
(С)
Тd
(С)
f
(%)
Тe
(С)
Тes
(С)
Комфортность P
(гПа)
Po
(гПа)
Тmin
(С)
Tmax
(С)
R
(мм)
R24
(мм)
S
(см)
С 5 8000 м 9/5 500 м
[Cu med, cong Ac As Cs]
+32.5 +25.9 68 +48 +52 опасность
перегрева
1009.4 1008.4
С 4 10 км в посл. час гроза 8/5 480 м
[Cb cap Ac As Cs]
+32.1 +26.2 71 +48 +50 опасность
перегрева
1006.8 1005.8
С 2 9000 м {гроза} 8/4 500 м
[Sc Ac As Cs]
+29.7 +26.2 82 +45 +45 опасность
перегрева
1007.4 1006.4 +33.8
З 2 5000 м мгла 8/4 500 м
[Sc Ac As Cs]
+27.9 +26.7 93 +43 +43 опасность
перегрева
1009.3 1008.3
С 2 4000 м мгла 8/4 500 м
[Sc Ac As Cs]
+26.8 +26.2 97 +41 +41 опасность
перегрева
1009.0 1008.0
Ю 2 3000 м дымка 8/4 500 м
[Sc Ac As Cs]
+26.0 +25.4 97 +38 +38 очень
душно
1008.2 1007.2
Ю 3 2000 м дымка {гроза} 9/4 500 м
[Cu Sc Ac As Cs]
+25.7 +25.4 98 +37 +37 очень
душно
1008.6 1007.6 +24.7
С 7 7000 м гроза без осадков 8/5 480 м
[Cb cap Ac As Cs]
+29.1 +25.2 80 +42 +44 опасность
перегрева
1010.6 1009.5
СЗ 6 10 км {гроза} 8/4 500 м
[Sc Ac As Cs]
+32.4 +25.3 66 +46 +50 опасность
перегрева
1008.4 1007.3
С 7 10 км 6/3 500 м
[Sc Ac As Cs]
+32.2 +26.4 72 +49 +50 опасность
перегрева
1005.8 1004.8
СЗ 4 8000 м 8/4 500 м
[Sc Ac As Cs]
+29.6 +27.1 86 +47 +47 опасность
перегрева
1006.4 1005.5 +33.8
ЮЗ 2 6000 м 8/4 540 м
[Sc Ac As Cs]
+28.5 +26.1 87 +43 +43 опасность
перегрева
1009.0 1008.1
ЮЗ 2 5000 м мгла 8/4 540 м
[Sc Ac As Cs]
+28.1 +26.3 90 +43 +43 опасность
перегрева
1009.5 1008.5
З 2 4000 м мгла 8/4 540 м
[Sc Ac As Cs]
+27.1 +25.7 92 +40 +40 очень
душно
1007.6 1006.8
С 6 6000 м гроза без осадков 9/8 500 м
[Cb cap Ac As Cs]
+26.9 +25.2 90 +39 +39 очень
душно
1010.4 1009.2 +27.0
ЮЗ 2 10 км {гроза, дождь} 9/5 500 м
[Sc Ac As Cs]
+27.8 +25.3 86 +40 +45 очень
душно
1011.9 1011.0 0.1
СЗ 3 10 км {гроза, дождь} 9/4 500 м
[Cu med, cong Ac As Cs]
+31.2 +25.8 73 +46 +53 опасность
перегрева
1010.1 1009.1 0.1
СЗ 5 10 км 8/3 540 м
[Cu med, cong Ac As Cs]
+31.1 +26.1 75 +47 +49 опасность
перегрева
1007.4 1006.4
СЗ 2 5000 м зарница 9/4 500 м
[Cb cap Ac As Cs]
+29.2 +26.0 83 +44 +44 опасность
перегрева
1008.5 1007.5 +32.2
ЮЗ 2 4000 м 8/5 480 м
[Cb cap Ac As Cs]
+27.4 +25.7 90 +40 +40 очень
душно
1010.7 1009.9
З 2 5000 м мгла 8/4 500 м
[Sc Ac lent Cs]
+26.4 +25.1 93 +38 +38 очень
душно
1010.0 1009.0
ЮЗ 1 8000 м 8/4 500 м
[Sc Ac lent Cs]
+25.6 +24.6 94 +36 +36 очень
душно
1008.7 1007.7
ЮЗ 1 6000 м 9/4 500 м
[Sc Ac lent Cs]
+24.6 +23.7 95 +33 +34 очень
душно
1009.8 1008.8 +24.4 0.1
З 5 9000 м 8/4 500 м
[Cu med, cong Ac As Cs]
+31.7 +25.7 71 +47 +50 опасность
перегрева
1011.4 1010.5
С 5 10 км 8/5 500 м
[Cu med, cong Ac As Cs]
+32.9 +26.0 67 +49 +52 опасность
перегрева
1009.5 1008.5
С 5 10 км 9/5 500 м
[Cu med, cong Ac As Cs]
+31.5 +26.0 73 +47 +48 опасность
перегрева
1006.8 1005.9
С 3 8000 м 9/5 500 м
[Cu med, cong Ac As Cs]
+29.3 +26.5 85 +45 +45 опасность
перегрева
1008.1 1007.2 +33.9
ЮЗ 2 4000 м мгла 9/5 500 м
[Cu med, cong Ac As Cs]
+28.6 +26.8 90 +45 +45 опасность
перегрева
1009.8 1008.9
Ю 2 3500 м мгла 9/4 500 м
[Sc Ac As Cs]
+27.2 +26.2 94 +41 +41 опасность
перегрева
1009.2 1008.2
Ю 2 3500 м дымка 9/4 500 м
[Sc Ac As Cs]
+25.9 +25.3 96 +37 +37 очень
душно
1008.2 1007.2
Ю 2 3000 м дымка 9/4 500 м
[Sc Ac As Cs]
+25.5 +25.4 99 +37 +37 очень
душно
1009.9 1009.0 +24.4
СЗ 4 10 км 8/5 540 м
[Cu med, cong Ac trans Ci fib]
+30.4 +25.4 75 +45 +48 опасность
перегрева
1011.2 1010.3
С 6 10 км 9/4 500 м
[Cu Sc Ac trans Cs]
+33.0 +24.6 61 +46 +48 опасность
перегрева
1009.3 1008.3
С 5 10 км 9/4 540 м
[Sc Ac As Cs]
+31.6 +25.8 71 +47 +48 опасность
перегрева
1006.4 1005.5
С 2 8000 м 9/5 500 м
[Sc Ac As Cs]
+29.6 +25.7 80 +44 +44 опасность
перегрева
1008.5 1007.6 +33.4
З 2 5000 м мгла 9/5 500 м
[Sc Ac As Cs]
+28.7 +26.6 88 +44 +44 опасность
перегрева
1010.5 1009.5
ЮЗ 2 3000 м мгла 9/5 500 м
[Sc Ac As Cs]
+27.7 +26.3 92 +42 +42 опасность
перегрева
1009.0 1008.1
ЮЗ 1 4000 м дымка 9/5 500 м
[Sc Ac As Cs]
+26.6 +25.9 96 +40 +40 очень
душно
1008.0 1007.0
ЮЗ 2 2000 м дымка 9/5 500 м
[Sc Ac As Cs]
+26.2 +25.6 97 +39 +39 очень
душно
1009.1 1008.1 +25.4
З 2 5000 м мгла 9/4 500 м
[Sc Ac As Cs]
+29.0 +25.6 82 +43 +48 опасность
перегрева
1011.4 1010.4
СЗ 6 10 км 9/5 540 м
[Cu Sc Ac As Cs]
+31.0 +26.5 77 +47 +50 опасность
перегрева
1009.4 1008.3
С 5 10 км 8/5 540 м
[Cu Sc Ac As Cs]
+30.4 +27.1 83 +48 +50 опасность
перегрева
1006.2 1005.2
СЗ 6 7000 м 8/5 540 м
[Cu Sc Ac As Cs]
+28.9 +26.0 84 +43 +43 опасность
перегрева
1008.2 1007.3 +33.4
штиль 0 7000 м 9/5 500 м
[Cb cap Ac As Cs]
+28.2 +25.8 87 +42 +42 опасность
перегрева
1010.6 1009.7
Ю 1 5000 м мгла 9/4 540 м
[Sc Ac As Cs]
+26.5 +25.1 92 +38 +38 очень
душно
1009.3 1008.4
ЮЗ 2 4000 м мгла 9/4 540 м
[Sc Ac As Cs]
+26.6 +25.3 93 +39 +39 очень
душно
1008.8 1007.9
Ю 2 2500 м дымка 8/8 540 м
[]
+25.9 +25.6 98 +38 +38 очень
душно
1010.1 1009.2 +25.6
В 1 5000 м мгла 9/4 540 м
[Sc Ac As Cs]
+29.2 +25.1 79 +42 +48 опасность
перегрева
1012.7 1011.8
С 3 8000 м слаб. дождь 10/4 540 м
[Sc Ac As Cs]
+28.8 +26.7 88 +45 +50 опасность
перегрева
1010.7 1009.7 0.1
С 3 10 км 9/5 540 м
[Cu med, cong Ac As Cs]
+31.5 +26.1 73 +47 +49 опасность
перегрева
1006.2 0.1
С 2 7000 м {дождь} 8/5 500 м
[Cb calv Ac As Cs]
+28.8 +25.4 82 +42 +42 опасность
перегрева
1009.2 1008.3 +33.4 0.1
Ю 2 4000 м дымка 8/4 540 м
[Sc Ac As Cs]
+26.5 +25.8 96 +39 +39 очень
душно
1010.2 1009.3
Ю 2 2500 м дымка 6/3 540 м
[Sc Ac As Cs]
+25.8 +25.7 99 +38 +38 очень
душно
1010.0 1009.0
ЮЗ 2 2000 м дымка 6/3 540 м
[Sc Ac As Cs]
+25.7 +25.6 99 +37 +37 очень
душно
1008.3 1007.4
ЮЗ 2 2000 м дымка {дождь} 8/3 540 м
[Sc Ac trans Cs]
+25.3 +25.2 99 +36 +37 очень
душно
1010.1 1009.2 +24.4 0.2
В 1 4000 м мгла 9/4 540 м
[Sc Ac As Cs]
+27.2 +25.5 90 +40 +46 очень
душно
1011.6 1010.7
Местоположение метеостанции Медан Полония (Индонезия): широта 3.57 долгота 98.68 высота над уровнем моря 25 м.
В архиве по умолчанию представлена погода в Медан Полония за последнюю неделю. Архивные данные за месяц целиком и за предыдущие месяцы, начиная с января 2011 года, Вы можете получить, выбрав интересующий диапазон дат из раскрывающегося списка и нажав кнопку "Найти!".
*Определитесь, кто Вы:
Внимание! Время в таблицах - всемирное. Для получения местного времени необходимо прибавить поправку, которая равна 7 ч.
Смотрите также архив погоды в соседних городах и на ближайших метеорологических станциях:
Партнеры нашего сайта:
Потолочные светильники накладные
светильники, цена
arkads.ru

    пластиковое напольное покрытие продукція паркетная доска из массива e-parket.com.ua  
Пояснения к столбцам:
  • Ветер - указаны скорость ветра в м/с - средняя за 10 мин, порывы в срок и между сроками (в фигурных скобках) и направление, откуда дует ветер: С - северный,
  • СВ - северо-восточный, В - восточный, ЮВ - юго-восточный, Ю - южный, ЮЗ - юго-западный, З - западный, СЗ - северо-западный.
  • Видимость - горизонтальная дальность видимости в метрах или километрах. При видимости от 1 до 10 км при отсутствии осадков обычно наблюдается дымка, при ухудшении видимости до 1 км и менее - туман. В сухую погоду видимость может ухудшаться дымом, пылью или мглою.
  • Явления - указаны атмосферные явления, наблюдавшиеся в срок или в последний час перед сроком; фигурными скобками обозначены явления, наблюдавшиеся между сроками (за 1-3 часа до срока); квадратными скобками обозначены град или гололедные отложения с указанием их диаметра в мм.
  • Облачность - указаны через наклонную черту общая и нижняя облачность в баллах и высота нижней границы облаков в метрах; квадратными скобками обозначены формы облаков: Ci - перистые, Cs - перисто-слоистые, Cc - перисто-кучевые, Ac - высококучевые, As - высокослоистые, Sc - слоисто-кучевые, Ns - слоисто-дождевые, Cu - кучевые, Cb - кучево-дождевые. Подробнее классификацию облаков см. в Атласе облаков (PDF).
  • T - Температура воздуха - температура, измеренная на высоте 2 м над землей.
  • Td - Температура точки росы - температура, при понижении до которой содержащийся в воздухе водяной пар достигнет насыщения.
  • f - Относительная влажность воздуха - влажноcть воздуха, измеренная на высоте 2 м над землей.
  • Te - Эффективная температура - температура, которую ощущает одетый по сезону человек в тени. Характеристика душности погоды. При расчете учитывается влияние влажности воздуха и скорости ветра на теплоощущения человека.
  • Tes - Эффективная температура на солнце - температура, которую ощущает человек, с поправкой на солнечный нагрев. Характеристика знойности погоды. Зависит от высоты солнца над горизонтом, облачности и скорости ветра. Ночью, в пасмурную погоду, а также при ветре 12 м/с и более поправка равна нулю.
  • P - Атмосферное давление - приведенное к уровню моря атмосферное давление.
  • Po - Атмосферное давление - измеренное на уровне метеостанции атмосферное давление.
  • Tmin - Минимальная температура - минимум температуры воздуха на высоте 2 м над землей.
  • Tmax - Максимальная температура - максимум температуры воздуха на высоте 2 м над землей.
  • R - Количество осадков - Количество выпавших осадков за период времени, мм. При наведении курсора мыши на число - период времени, за который выпало указанное количество осадков.
  • R24 - Количество осадков - Количество выпавших осадков за 24 часа, мм.
  • S - Снежный покров - Высота снежного покрова, см. При наведении курсора мыши на число - состояние снежного покрова и степень покрытия местности в баллах.